#timestamp,LO_Frequency,Hit,StdDev 
1552914015.2,286047003.5,N
1552914035.1,286047003.6,N
1552914036.0,286047003.6,N
1552914055.8,286047004.1,N
1552914075.6,286047001.9,N
1552914095.5,286047003.9,N
1552914115.3,286047004.0,N
1552914135.1,286047002.6,N
1552914155.9,286047001.5,N
1552914175.7,286047002.7,N
1552914195.6,286047000.9,N
1552914215.4,286047000.8,N
1552914235.2,286047001.1,N
1552914255.1,286046998.9,N
1552914256.0,286046998.9,N
1552914275.8,286046996.5,N
1552914295.6,286047001.0,N
1552914315.5,286047001.0,N
1552914335.3,286047001.2,N
1552914355.2,286046998.1,N
1552914375.9,286047001.2,N
1552914395.7,286047000.8,N
1552914415.6,286047000.5,N
1552914435.4,286047001.2,N
1552914455.2,286046998.1,N
1552914475.1,286047000.5,N
1552914476.0,286047000.5,N
1552914495.8,286047004.4,N
1552914515.7,286047003.9,N
1552914535.5,286047004.4,N
1552914555.3,286047001.7,N
1552914575.2,286047003.2,N
1552914595.9,286047001.8,N
1552914615.7,286047001.3,N
1552914635.6,286047002.6,N
1552914655.4,286047000.1,N
1552914675.2,286047000.6,N
1552914695.1,286047000.3,N
1552914696.0,286047000.3,N
1552914715.8,286047002.7,N
1552914735.7,286047000.2,N
1552914755.5,286047000.3,N
1552914775.3,286047002.7,N
1552914795.2,286047000.4,N
1552914815.0,286046999.8,N
1552914815.9,286046999.8,N
1552914835.7,286047000.5,N
1552914855.6,286047000.0,N
1552914875.4,286046998.2,N
1552914895.3,286047001.1,N
1552914915.1,286046998.1,N
1552914916.0,286046998.1,N
1552914935.8,286047000.8,N
1552914955.7,286046997.0,N
1552914975.5,286046996.6,N
1552914995.3,286046996.9,N
1552915015.2,286046996.9,N
1552915035.0,286046999.5,N
1552915035.9,286046999.5,N
1552915055.8,286046999.2,N
1552915075.6,286046997.2,N
1552915095.4,286046995.0,N
1552915115.3,286046996.7,N
1552915135.1,286046997.9,N
1552915155.8,286046995.1,N
1552915175.7,286046996.6,N
1552915195.5,286046996.6,N
1552915215.4,286046996.6,N
1552915235.2,286046999.4,N
1552915255.0,286046998.1,N
1552915255.9,286046998.1,N
1552915275.8,286046998.9,N
1552915295.6,286046998.1,N
1552915315.4,286046998.2,N
1552915335.3,286046998.1,N
1552915355.1,286047001.2,N
1552915375.9,286047001.1,N
1552915395.7,286046998.1,N
1552915415.5,286046998.7,N
1552915435.4,286046998.9,N
1552915455.2,286046998.5,N
1552915475.0,286047000.8,N
1552915475.9,286047000.8,N
1552915495.8,286046998.1,N
1552915515.6,286047000.9,N
1552915535.5,286047000.6,N
1552915555.3,286046998.3,N
1552915575.1,286046998.8,N
1552915595.9,286047000.6,N
1552915615.7,286047000.3,N
1552915635.5,286046998.6,N
1552915655.4,286046998.5,N
1552915675.2,286046998.6,N
1552915695.1,286046998.3,N
1552915696.0,286046998.3,N
1552915715.8,286047000.4,N
1552915735.6,286047001.1,N
1552915755.5,286047000.8,N
1552915775.3,286046998.4,N
1552915795.1,286046998.3,N
1552915815.9,286046998.5,N
1552915835.7,286046998.3,N
1552915855.6,286046998.6,N
1552915875.4,286046998.6,N
1552915895.2,286047000.6,N
1552915915.1,286047000.1,N
1552915916.0,286047000.1,N
1552915935.8,286047000.4,N
1552915955.6,286047000.9,N
1552915975.5,286047000.8,N
1552915995.3,286046999.2,N
1552916015.2,286046999.3,N
1552916035.9,286046999.7,N
1552916055.7,286047000.8,N
1552916075.6,286047000.3,N
1552916095.4,286046998.5,N
1552916115.2,286047001.1,N
1552916135.1,286047000.2,N
1552916136.0,286047000.2,N
1552916155.8,286047000.2,N
1552916175.7,286047000.7,N
1552916195.5,286047000.3,N
1552916215.3,286047002.8,N
1552916235.2,286047000.4,N
1552916255.0,286046998.5,N
1552916255.9,286046998.5,N
1552916275.8,286046998.5,N
1552916295.6,286046999.4,N
1552916315.4,286047000.8,N
1552916335.3,286047000.5,N
1552916355.1,286047001.1,N
1552916375.8,286047000.8,N
1552916395.7,286046999.1,N
1552916415.5,286046998.6,N
1552916435.4,286046999.5,N
1552916455.2,286047000.8,N
1552916475.0,286046999.9,N
1552916475.9,286046999.9,N
1552916495.8,286047000.5,N
1552916515.6,286047000.2,N
1552916535.4,286047002.3,N
1552916555.3,286047001.9,N
1552916575.1,286047002.3,N
1552916595.9,286047000.0,N
1552916615.7,286047000.8,N
1552916635.5,286047000.2,N
1552916655.4,286047000.2,N
1552916675.2,286046999.8,N
1552916695.1,286046999.8,N
1552916696.0,286046999.8,N
1552916715.8,286046999.8,N
1552916735.6,286047000.5,N
1552916755.5,286047001.0,N
1552916775.3,286047000.2,N
1552916795.1,286046998.3,N
1552916815.9,286047001.2,N
1552916835.7,286047000.0,N
1552916855.6,286047000.7,N
1552916875.4,286047000.5,N
1552916895.2,286047000.0,N
1552916915.1,286047001.8,N
1552916916.0,286047001.8,N
1552916935.8,286047001.3,N
1552916955.7,286047004.4,Y
1552916975.5,286047001.6,P
1552916995.3,286047001.8,P
1552917015.2,286047001.4,N
1552917035.0,286047001.4,N
1552917035.9,286047001.4,N
1552917055.8,286047002.7,Y
1552917075.6,286047000.9,P
1552917095.4,286046998.6,P
1552917115.3,286046998.3,N
1552917135.1,286046996.5,N
1552917155.8,286046997.1,N
1552917175.7,286046995.3,N
1552917195.5,286046995.7,N
1552917215.4,286046995.4,N
1552917235.2,286046997.6,N
1552917255.0,286046997.9,N
1552917255.9,286046997.9,N
1552917275.8,286046997.9,N
1552917295.6,286046997.2,N
1552917315.4,286046999.4,N
1552917335.3,286046999.3,N
1552917355.1,286046998.4,N
1552917375.9,286046998.7,N
1552917395.7,286046999.3,N
1552917415.5,286047000.7,N
1552917435.4,286046999.8,N
1552917455.2,286046999.8,N
1552917475.0,286046999.9,N
1552917475.9,286046999.9,N
1552917495.8,286047000.4,N
1552917515.6,286047002.8,N
1552917535.5,286046998.1,N
1552917555.3,286047000.7,N
1552917575.1,286046999.0,N
1552917595.9,286046996.7,N
